Theta_e
309 307 305 304 304 303 303 305 304 305 305 305 305 305 305 306 307 308 308 308 309 309 310 310 309 309 302 293 294 303 315 309 302 300 296 293 291 290 287 286 287 285 287 289 290 290 289
308 307 305 304 303 303 303 304 304 305 305 304 305 305 305 306 307 307 307 308 309 310 312 311 309 309 296 283 297 301 299 299 298 295 292 293 290 292 288 286 284 286 287 288 289 289 289
308 307 305 304 303 303 304 303 304 305 304 305 305 304 305 305 307 307 306 308 309 312 311 311 310 304 294 287 295 297 297 295 296 295 292 294 294 289 289 284 289 287 283 285 284 287 286
308 307 305 304 304 306 304 303 304 304 304 304 304 304 305 305 306 306 306 308 309 312 310 311 310 297 288 299 294 296 296 295 297 296 296 296 295 291 287 288 285 281 280 278 284 287 287
309 306 305 304 304 304 303 303 303 304 303 304 303 304 304 305 305 305 306 308 309 311 311 311 299 293 286 300 292 294 294 293 295 296 296 299 292 286 287 281 278 279 275 276 281 286 285
307 306 304 304 304 303 302 303 303 302 304 303 303 304 305 305 304 305 306 307 307 306 308 307 303 286 292 287 292 293 294 295 293 292 291 291 286 281 280 278 274 276 276 278 277 283 284
307 306 305 304 304 304 303 303 303 303 303 303 303 304 304 304 303 305 298 295 290 288 292 287 288 288 291 295 294 292 294 293 293 289 282 286 281 277 278 280 280 279 278 277 279 284 280
306 306 306 305 304 303 303 303 303 303 303 303 303 303 304 303 303 301 292 287 286 287 283 290 291 292 294 295 288 290 295 287 286 282 283 282 280 284 284 282 281 281 279 278 280 282 280
307 307 307 306 304 303 304 303 302 302 302 302 302 303 303 302 301 292 288 287 292 291 282 287 292 292 292 293 288 288 291 287 284 281 282 280 281 286 284 282 281 280 279 278 279 281 279
308 308 306 305 304 304 302 301 300 301 301 301 302 303 302 300 290 287 285 290 292 292 275 280 286 289 291 292 285 292 292 288 283 280 280 280 284 282 282 280 281 278 282 281 280 277 272
308 308 306 305 305 304 303 301 301 301 300 301 302 302 301 296 285 284 287 291 293 285 264 282 285 293 290 285 286 286 291 288 282 281 281 279 280 280 280 281 283 280 282 280 280 276 274
309 307 306 305 305 305 302 301 301 300 300 302 302 302 299 289 285 286 289 291 285 274 266 279 284 282 283 285 284 286 286 288 285 281 281 280 283 281 282 282 283 283 280 278 277 275 262
309 308 306 305 306 303 302 301 301 300 301 301 301 301 294 289 281 287 291 284 273 266 276 273 278 281 281 281 282 282 281 279 277 272 273 278 279 280 282 280 281 281 276 261 261 259 263
310 309 307 305 306 304 302 301 300 300 300 300 301 298 292 289 288 291 285 277 264 264 266 280 279 280 278 279 280 280 279 276 277 276 273 271 270 278 281 280 278 278 276 265 257 259 265
311 310 308 307 306 304 303 301 300 300 299 299 296 287 286 288 290 289 280 265 269 269 275 278 277 270 271 278 277 277 275 276 277 279 274 271 273 279 281 281 281 278 272 277 264 262 263
311 310 308 307 306 304 303 302 301 300 300 299 287 284 285 288 289 283 275 273 270 279 280 279 272 270 262 266 273 275 274 277 278 279 279 276 271 278 280 280 280 280 281 272 268 262 262
311 310 309 307 306 305 304 302 302 301 300 298 285 280 285 288 286 279 268 266 276 281 280 278 273 266 272 268 273 271 274 277 277 276 279 277 275 274 277 276 275 275 273 274 275 270 262
310 310 309 308 306 305 305 303 303 301 300 293 282 274 285 285 273 261 264 273 282 278 278 278 279 276 273 272 268 272 274 276 277 277 274 277 274 267 272 274 274 275 276 275 268 266 268
310 309 308 308 307 305 305 304 303 302 300 286 279 279 284 283 267 264 269 276 278 276 276 277 276 278 276 269 267 270 273 277 277 276 273 275 266 257 265 269 273 272 275 274 268 269 266
310 309 308 308 307 306 306 305 304 303 300 287 277 271 273 277 276 273 267 271 273 278 276 277 277 277 273 268 271 264 272 277 278 277 281 277 267 261 262 265 268 267 270 271 265 260 262
310 309 308 308 307 306 306 305 304 303 301 286 276 271 271 268 271 273 274 273 273 270 276 276 274 275 273 263 263 263 268 273 275 277 275 271 261 262 263 267 267 268 268 269 263 262 262
305 309 308 307 307 306 306 305 304 302 300 280 275 272 269 264 274 274 274 269 272 272 273 273 269 274 271 266 269 263 265 266 269 270 270 270 261 265 259 268 268 267 268 268 269 268 266
306 309 308 307 307 306 306 305 304 302 295 278 276 278 275 272 271 269 270 271 274 275 275 276 273 271 272 273 271 273 274 274 272 269 266 265 262 257 254 265 263 259 266 268 266 266 265
306 305 308 307 307 306 305 304 304 302 295 282 279 276 271 264 270 272 275 275 275 275 272 275 275 273 276 278 277 275 273 273 271 271 273 263 263 261 254 257 251 267 268 269 269 270 270
302 302 305 307 307 305 305 304 304 303 296 284 282 275 269 261 274 274 275 275 275 276 274 275 277 278 279 276 268 263 262 264 264 268 269 271 269 261 256 250 262 267 267 266 265 267 270
302 303 303 305 306 305 304 304 303 303 298 286 283 281 273 270 270 279 274 274 266 266 268 272 277 278 277 270 264 259 258 256 258 259 267 271 272 268 255 254 251 264 268 271 270 264 272
299 302 303 305 305 304 304 304 303 302 299 288 284 283 275 268 271 277 269 271 275 270 266 267 272 272 276 264 262 256 258 260 258 256 256 264 263 264 264 261 261 268 271 272 259 263 272
298 300 302 305 305 304 304 303 303 302 299 290 283 284 279 269 271 278 279 273 273 272 268 268 270 268 267 264 261 259 254 260 258 263 262 260 257 255 255 255 258 271 270 265 269 274 274
296 299 298 305 304 304 303 303 302 302 298 291 282 287 285 276 274 280 281 282 281 280 272 265 269 268 273 264 261 260 256 255 258 257 268 260 264 261 261 262 270 270 269 270 267 272 274
Wind_Speed
7 5 3 1 1 2 4 5 6 8 9 10 11 13 14 14 14 15 14 12 12 10 7 6 3 3 2 3 1 3 4 6 3 2 3 2 1 2 2 1 2 3 2 4 6 8 7
8 5 4 2 2 3 5 7 8 7 9 11 11 13 14 16 16 15 14 12 9 8 7 5 2 1 2 3 2 4 4 4 4 2 2 4 2 2 3 1 1 2 3 7 7 7 5
7 6 4 3 4 5 6 6 9 9 8 11 13 13 14 16 17 16 13 12 10 9 6 3 5 0 1 3 2 3 3 1 2 1 2 2 1 1 2 0 2 3 6 7 3 3 2
8 7 6 6 7 5 4 6 9 9 10 10 13 14 14 15 17 16 14 11 8 7 3 5 4 2 1 2 1 3 2 2 3 2 3 2 2 3 2 1 6 3 3 4 5 5 5
10 7 7 7 7 7 7 6 7 9 10 11 13 14 15 16 16 16 14 12 6 4 3 5 2 1 1 4 3 2 2 1 2 3 4 3 5 3 4 4 4 5 2 2 7 4 3
10 9 8 9 5 7 5 7 8 8 10 11 13 14 16 17 16 15 15 8 3 3 1 1 1 1 2 1 2 2 2 2 3 3 4 6 5 3 3 4 5 4 2 2 3 4 7
11 10 10 9 7 8 8 9 7 8 10 12 13 14 17 18 13 13 7 3 4 3 2 2 1 0 1 2 2 2 1 2 3 6 1 3 3 6 8 6 2 3 1 2 4 6 3
12 13 12 10 9 8 9 7 5 8 10 11 12 14 15 17 13 9 3 3 2 1 3 1 4 3 1 1 3 1 2 3 2 2 1 4 6 6 3 4 3 2 1 3 4 2 1
14 13 14 12 10 10 6 6 6 9 10 10 12 13 16 15 6 5 3 2 4 2 1 1 2 2 1 3 2 2 4 2 2 2 4 5 2 5 3 2 3 3 4 4 5 5 2
17 17 14 14 12 12 6 5 5 7 8 9 11 13 14 14 4 1 2 4 3 1 5 2 1 2 1 1 1 1 1 2 1 2 3 5 5 3 3 2 3 3 4 3 4 3 3
18 18 16 15 15 15 10 7 7 8 8 9 10 12 12 10 2 3 3 3 3 2 5 3 1 2 2 2 1 3 3 3 2 1 4 5 2 1 4 7 7 6 3 2 1 3 2
20 19 15 15 15 11 7 8 8 7 8 7 6 10 8 3 3 1 2 3 3 9 8 2 4 4 2 4 2 2 3 5 1 0 1 7 3 3 5 2 4 4 4 6 4 2 2
24 21 19 17 18 12 9 8 9 6 8 6 8 9 2 2 1 1 2 4 8 6 5 5 2 3 3 4 2 2 2 2 1 4 3 4 4 3 3 3 1 3 6 4 7 5 8
24 23 21 21 19 14 12 10 8 6 4 5 6 4 3 2 1 2 3 7 5 2 6 1 2 2 3 4 1 2 2 2 2 3 1 2 8 3 1 4 5 5 8 8 8 3 4
25 24 22 20 19 16 15 13 10 7 4 3 3 2 2 2 2 2 6 5 10 7 5 7 3 5 4 2 2 1 3 4 4 6 7 4 6 3 1 1 4 3 4 4 8 1 3
26 26 24 22 20 20 17 16 14 10 6 5 2 1 1 2 1 4 6 6 5 3 4 3 6 3 5 4 2 3 3 3 4 3 1 3 4 2 4 1 1 4 5 3 3 2 6
28 27 26 24 23 22 21 18 17 13 8 8 3 2 1 2 2 5 5 8 5 4 4 5 6 4 4 6 4 3 4 1 3 3 2 4 3 3 1 1 4 1 1 1 2 5 6
30 31 28 26 26 24 23 22 20 16 11 6 3 1 1 2 4 2 4 7 5 5 2 2 4 4 7 6 5 4 6 1 2 4 5 3 3 4 6 1 2 3 2 1 4 6 3
33 31 30 28 27 26 24 24 23 20 17 5 4 2 1 3 4 3 4 2 4 5 5 6 6 3 3 6 0 4 2 1 1 3 5 4 2 3 10 6 3 3 2 4 4 1 5
36 34 31 29 30 29 26 25 24 23 20 5 4 2 4 3 0 6 5 4 3 1 2 3 4 4 4 2 3 3 3 1 2 1 4 3 2 7 7 4 2 3 2 3 4 3 1
36 35 34 32 32 30 27 26 24 25 22 5 2 5 4 4 4 4 4 4 5 5 2 3 1 5 6 4 2 4 2 1 2 4 3 5 4 3 4 6 4 7 5 6 6 6 7
18 35 35 33 33 32 30 29 26 25 23 5 6 5 3 3 2 6 6 6 9 4 7 4 4 6 6 7 8 8 7 3 6 4 3 2 2 2 5 6 8 16 5 10 14 8 10
21 26 35 32 32 33 31 30 28 27 15 4 1 2 5 2 3 6 6 6 8 8 3 2 5 5 4 6 7 3 4 3 4 7 5 4 5 4 6 6 6 12 10 17 5 6 8
18 21 29 35 34 34 32 32 30 31 17 4 4 5 5 4 3 5 5 3 7 6 7 3 5 5 1 7 6 6 5 4 1 6 4 6 5 3 4 4 4 6 3 3 9 11 11
19 11 11 38 37 36 34 33 33 31 22 5 4 5 5 2 2 2 6 5 5 4 3 4 2 1 7 5 5 6 6 7 5 2 5 3 5 1 4 5 10 14 7 8 8 15 8
22 26 24 22 38 38 35 34 33 32 27 5 3 4 5 7 6 5 5 4 5 3 4 1 3 3 6 4 4 4 5 4 6 8 3 6 6 7 3 5 10 2 3 4 4 13 10
18 29 26 25 38 37 34 33 32 31 28 7 3 4 6 5 4 5 5 6 6 4 4 1 3 2 2 3 3 4 5 2 4 5 4 4 1 15 13 11 10 8 5 6 6 8 3
23 25 21 33 40 37 35 34 33 31 28 9 2 3 6 4 4 3 4 6 4 2 6 5 5 3 3 3 4 5 4 7 1 4 7 9 8 5 3 2 15 6 3 9 8 3 2
20 24 31 43 42 39 37 34 32 31 28 12 4 2 3 6 5 1 1 2 1 7 7 2 5 5 5 4 0 4 2 0 3 5 3 3 10 8 11 12 5 4 8 5 4 7 9
Wind_Direction
139 154 150 170 321 326 322 324 328 340 336 339 336 331 335 333 334 332 330 325 322 325 312 301 309 300 317 51 145 341 356 354 25 32 66 77 102 130 161 194 322 204 265 281 274 287 262
160 178 185 202 273 297 309 332 325 329 332 329 334 336 335 334 334 335 332 328 332 319 326 292 182 158 272 102 326 5 2 3 37 38 53 57 150 180 125 180 201 315 271 270 281 281 265
177 193 214 231 257 267 283 315 315 330 337 330 331 336 338 335 334 334 330 324 321 341 339 212 163 178 346 159 7 3 26 20 2 53 95 64 82 118 135 111 323 302 317 327 286 334 314
203 209 225 239 254 301 316 305 322 321 324 332 331 334 337 337 335 330 327 320 319 327 28 125 124 350 189 300 265 57 13 11 30 32 84 52 64 102 58 303 18 12 54 5 306 3 356
209 218 236 236 253 271 280 308 315 328 319 328 329 331 334 337 336 329 326 316 304 317 122 116 17 330 179 322 65 352 32 60 37 23 23 78 67 85 25 78 8 10 249 244 320 62 51
226 222 215 234 232 267 267 285 284 314 318 325 331 333 335 339 336 330 326 307 309 23 14 319 284 352 336 113 33 3 4 89 82 54 17 42 48 73 43 97 226 220 227 269 267 311 4
235 219 213 222 238 260 272 288 267 306 319 329 332 337 337 335 339 339 1 27 24 335 23 238 267 52 137 293 83 47 78 74 48 40 90 360 73 213 218 200 126 113 163 257 265 281 258
228 228 224 223 234 251 249 273 327 307 318 324 330 337 340 331 336 6 55 82 63 302 313 219 288 308 282 4 61 333 80 108 85 200 96 22 244 236 208 169 193 153 221 267 283 254 278
218 231 227 220 239 245 256 280 307 305 302 319 326 338 338 330 357 45 69 90 324 320 112 275 214 169 231 116 182 227 128 136 144 188 202 186 246 45 146 177 166 219 192 199 217 329 315
213 223 217 227 225 236 215 268 301 298 307 324 328 339 345 339 42 297 51 328 330 325 62 276 308 354 43 117 26 89 148 111 26 248 202 244 282 206 207 241 152 291 226 191 167 112 231
225 217 218 229 241 234 227 244 259 284 300 311 328 338 354 37 151 49 316 341 318 57 11 315 358 331 7 97 142 26 3 62 199 216 109 258 339 176 209 223 165 231 138 138 113 112 46
211 210 227 235 234 220 238 241 260 264 289 319 336 334 2 20 44 278 323 4 42 43 258 345 341 350 70 15 17 56 49 37 124 93 211 243 290 250 223 180 175 132 107 46 42 80 0
208 211 204 218 219 209 217 239 249 263 282 320 322 331 55 99 220 307 48 40 45 131 324 297 26 15 35 15 18 50 44 30 160 60 335 309 229 254 186 170 84 105 75 332 350 10 224
209 207 204 203 225 202 200 224 230 251 274 306 332 18 359 81 291 115 59 55 96 241 219 137 57 79 114 346 337 345 112 227 194 114 142 166 319 187 61 209 193 187 157 162 210 208 267
212 204 203 205 197 205 199 213 211 220 219 299 63 6 45 339 156 80 74 75 203 198 181 163 71 84 314 307 262 262 218 208 188 183 182 166 263 314 211 322 133 196 185 170 108 107 44
211 201 201 200 196 197 203 205 204 197 201 122 83 43 271 330 109 58 78 233 197 208 157 156 172 147 186 245 211 200 209 207 182 192 155 199 292 181 286 225 45 168 153 124 1 153 236
207 200 201 199 195 193 197 207 195 189 184 132 75 83 292 73 51 54 166 224 211 226 171 160 189 140 216 194 211 221 221 180 177 160 177 154 158 279 291 231 183 54 256 36 136 153 178
203 200 199 197 194 193 195 198 187 185 168 96 119 90 338 52 59 11 170 185 184 169 162 159 132 130 183 168 185 240 230 249 192 167 174 193 167 238 238 278 284 285 288 169 165 238 226
202 203 200 195 192 194 194 192 186 179 159 131 149 156 360 102 159 257 294 235 201 153 195 177 186 167 131 172 130 214 245 29 181 161 168 203 285 7 338 355 8 237 124 89 108 88 219
198 201 201 197 194 193 193 189 186 181 168 100 103 107 329 57 233 146 141 232 218 239 149 139 128 97 99 86 37 236 233 179 12 166 125 87 115 167 191 186 139 280 153 127 118 123 182
202 199 201 196 194 191 190 191 185 179 165 105 87 235 187 209 258 163 158 145 150 174 191 171 123 201 160 160 355 232 300 317 331 344 74 113 197 159 253 251 248 238 211 209 184 189 187
284 201 198 198 193 189 188 184 182 178 155 92 145 145 350 156 155 118 176 226 173 185 147 208 176 187 160 166 185 203 148 201 212 358 111 9 253 103 305 278 258 272 231 222 226 216 254
223 216 203 197 193 188 184 183 181 175 144 134 207 37 113 190 119 109 210 196 194 144 250 148 165 114 183 220 182 199 176 172 185 158 169 141 133 83 272 333 347 305 220 220 189 193 179
225 211 210 188 195 188 184 180 180 175 168 125 182 114 100 250 139 196 168 135 170 190 147 142 128 126 161 96 92 41 48 360 108 245 158 140 121 116 234 17 292 249 154 190 196 234 223
225 187 198 192 190 187 185 182 178 175 167 110 152 119 123 167 172 143 158 129 95 121 80 137 163 144 143 61 59 15 341 7 283 318 252 167 149 162 165 200 294 288 216 162 173 255 212
216 228 234 234 185 184 185 180 179 176 171 106 139 123 112 121 239 128 138 158 144 134 12 317 33 73 67 81 84 169 226 195 296 326 331 212 220 196 126 186 226 169 171 180 107 274 203
292 226 223 219 178 183 182 179 176 175 168 131 141 146 96 115 259 138 160 173 133 95 131 301 178 62 27 117 126 168 238 187 247 185 213 133 208 217 226 234 267 247 211 121 123 243 176
264 279 233 208 175 179 177 181 176 171 161 129 129 169 120 123 260 171 169 131 85 114 146 214 74 335 50 133 144 209 171 216 143 200 181 169 166 199 87 242 265 209 42 189 217 195 232
249 300 308 184 173 173 175 174 173 164 157 120 114 179 124 91 198 189 282 346 124 176 129 339 171 162 167 95 295 89 209 64 176 250 168 275 191 187 179 212 232 209 213 245 170 250 278